Millbury, OH

6:11 AM EST on December 03, 2016 (GMT -0500)
Metcalf

Weather History for KTDZ - April, 2014

Change the Weather History Date:

Saturday, April 5, 2014

  Actual Average (KTOL) Record (KTOL)
Temperature  
Mean Temperature 42 °F 45 °F  
Max Temperature 51 °F 56 °F 82 °F (1988)
Min Temperature 33 °F 35 °F 12 °F (1995)
Degree Days  
Heating Degree Days 24 20  
Month to date heating degree days 102  
Since 1 July heating degree days 5528  
Cooling Degree Days 0 0  
Month to date cooling degree days 0  
Year to date cooling degree days 0  
Moisture  
Dew Point 25 °F    
Average Humidity 60    
Maximum Humidity 73    
Minimum Humidity 33    
Precipitation  
Precipitation 0.00 in 0.10 in 0.95 in (2009)
Month to date precipitation 0.50  
Year to date precipitation 7.10  
Snow  
Snow 0.00 in 0.00 in - ()
Month to date snowfall 0.4  
Since 1 July snowfall 36.6  
Snow Depth -    
Sea Level Pressure  
Sea Level Pressure 30.06 in    
Wind  
Wind Speed 18 mph (West)    
Max Wind Speed 24 mph    
Max Gust Speed 36 mph    
Visibility 10 miles    
Events      
T = Trace of Precipitation, MM = Missing Value Source: NWS Daily Summary

Daily Weather History Graph

Daily Weather History Graph

Search for Another Location

Airport or City:

Trip Planner

Search our weather history database for the weather conditions in past years. The results will help you decide how hot, cold, wet, or windy it might be!

Date:

Astronomy

Apr. 05, 2014 Rise Set
Actual Time 7:10 AM EDT 8:03 PM EDT
Civil Twilight 6:42 AM EDT 8:31 PM EDT
Nautical Twilight 6:08 AM EDT 9:05 PM EDT
Astronomical Twilight 5:33 AM EDT 9:40 PM EDT
Moon 11:14 AM EDT (4/5) 1:15 AM EDT (4/5)
Length of Visible Light 13h 49m
Length of Day
12h 53m
Waxing Crescent, 34% of the Moon is Illuminated
Apr 5
Waxing Crescent
Apr 7
First Quarter
Apr 15
Full
Apr 22
Last Quarter
Apr 29
New

Hourly Weather History & Observations

Time (EDT) Temp. Windchill Dew Point Humidity Pressure Visibility Wind Dir Wind Speed Gust Speed Precip Events Conditions
12:53 AM 37.0 °F 26.7 °F 28.9 °F 73% 29.85 in 10.0 mi West 19.6 mph 28.8 mph N/A   Overcast
1:26 AM 37.0 °F 26.2 °F 28.9 °F 73% 29.85 in 10.0 mi West 21.9 mph 29.9 mph N/A   Overcast
1:39 AM 37.0 °F 27.0 °F 28.9 °F 73% 29.86 in 10.0 mi West 18.4 mph 28.8 mph N/A   Overcast
1:53 AM 37.0 °F 27.4 °F 28.9 °F 73% 29.87 in 10.0 mi WSW 17.3 mph 25.3 mph N/A   Overcast
2:17 AM 37.0 °F 26.7 °F 28.9 °F 73% 29.87 in 10.0 mi WSW 19.6 mph 26.5 mph N/A   Overcast
2:53 AM 37.0 °F 25.6 °F 28.0 °F 70% 29.90 in 10.0 mi West 24.2 mph 32.2 mph N/A   Overcast
3:53 AM 36.0 °F 25.0 °F 26.1 °F 67% 29.93 in 10.0 mi West 20.7 mph 33.4 mph N/A   Overcast
4:53 AM 35.1 °F 24.5 °F 26.1 °F 70% 29.96 in 10.0 mi West 18.4 mph 28.8 mph N/A   Overcast
5:02 AM 35.1 °F 23.8 °F 26.1 °F 70% 29.95 in 10.0 mi West 20.7 mph - N/A   Overcast
5:22 AM 35.1 °F 23.3 °F 25.0 °F 67% 29.96 in 10.0 mi West 23.0 mph 32.2 mph N/A   Overcast
5:53 AM 34.0 °F 22.1 °F 25.0 °F 70% 29.99 in 10.0 mi WNW 21.9 mph 35.7 mph N/A   Overcast
6:53 AM 34.0 °F 22.4 °F 23.0 °F 64% 30.04 in 10.0 mi WNW 20.7 mph - N/A   Overcast
7:09 AM 33.1 °F 20.9 °F 21.9 °F 64% 30.03 in 10.0 mi WNW 21.9 mph 28.8 mph N/A   Overcast
7:19 AM 33.1 °F 20.3 °F 21.9 °F 64% 30.04 in 10.0 mi WNW 24.2 mph 28.8 mph N/A   Overcast
7:53 AM 33.1 °F 23.4 °F 23.0 °F 66% 30.07 in 10.0 mi WNW 13.8 mph - N/A   Overcast
8:48 AM 33.8 °F 23.5 °F 24.8 °F 70% 30.08 in 10.0 mi WNW 16.1 mph 25.3 mph N/A   Overcast
8:53 AM 34.0 °F 23.8 °F 23.0 °F 64% 30.10 in 10.0 mi WNW 16.1 mph 25.3 mph N/A   Overcast
9:41 AM 35.1 °F 24.8 °F 25.0 °F 67% 30.10 in 10.0 mi West 17.3 mph 23.0 mph N/A   Overcast
9:53 AM 36.0 °F 27.1 °F 25.0 °F 64% 30.12 in 10.0 mi WNW 13.8 mph 24.2 mph N/A   Overcast
10:53 AM 37.9 °F 27.6 °F 25.0 °F 60% 30.15 in 10.0 mi WNW 20.7 mph 26.5 mph N/A   Mostly Cloudy
11:07 AM 39.0 °F 29.6 °F 26.1 °F 60% 30.14 in 10.0 mi NW 18.4 mph - N/A   Mostly Cloudy
11:53 AM 39.9 °F 30.5 °F 25.0 °F 55% 30.16 in 10.0 mi WNW 19.6 mph 26.5 mph N/A   Scattered Clouds
12:53 PM 43.0 °F 36.0 °F 27.0 °F 53% 30.15 in 10.0 mi WNW 13.8 mph 25.3 mph N/A   Clear
1:53 PM 46.0 °F 40.6 °F 27.0 °F 47% 30.15 in 10.0 mi West 11.5 mph - N/A   Clear
2:53 PM 48.0 °F - 24.1 °F 39% 30.15 in 10.0 mi WNW 13.8 mph - N/A   Clear
3:53 PM 50.0 °F - 25.0 °F 38% 30.14 in 10.0 mi WNW 13.8 mph - N/A   Clear
4:53 PM 48.9 °F - 23.0 °F 36% 30.15 in 10.0 mi WNW 8.1 mph - N/A   Clear
5:53 PM 50.0 °F - 21.9 °F 33% 30.16 in 10.0 mi West 12.7 mph - N/A   Clear
6:53 PM 48.9 °F - 21.0 °F 33% 30.17 in 10.0 mi WNW 6.9 mph - N/A   Clear
8:53 PM 42.1 °F 40.2 °F 24.1 °F 49% 30.19 in 10.0 mi WSW 3.5 mph - N/A   Clear
9:53 PM 41.0 °F - 24.1 °F 51% 30.21 in 10.0 mi Calm Calm - N/A   Clear
10:53 PM 37.0 °F - 25.0 °F 62% 30.21 in 10.0 mi Calm Calm - N/A   Clear
11:53 PM 36.0 °F - 26.1 °F 67% 30.21 in 10.0 mi Calm Calm - N/A   Clear